Location: Newark
(49.8969°N, 3.3422°E)
Time: 00:58:44
(UTC+00:00)

Explorer 7 - Pass Details

Date: 24 January 2020
Orbit: 485 x 679 km, 50.3° (Epoch: 20 February)

Event Time Altitude Azimuth Distance (km) Brightness Sun altitude
Rises 03:26:27 0° 284° (WNW) 2,566 - -38.9°
Reaches altitude 10° 03:28:37 10° 281° (W) 1,697 - -38.6°
Maximum altitude 03:32:24 62° 200° (SSW) 576 - -38.0°
Drops below altitude 10° 03:36:21 10° 120° (ESE) 1,771 - -37.4°
Exits shadow 03:37:29 - 118° (ESE) 2,225 10.4 -37.2°
Sets 03:38:38 0° 117° (ESE) 2,692 10.9 -37.0°
